EW7271 Weather Reports


time (UTC)temp
F
wind
direction
speed
knots
gust
knots
rain 1hr
in
rain 24hr
in
rain mn
in
humidity
%
barometer
mb
20260510234759 74 254 0.0 0.9 0.00 0.00 0.00 55 1015.0
20260510234400 75 254 0.9 1.7 0.00 0.00 0.00 53 1014.9
20260510233559 75 254 0.0 1.7 0.00 0.00 0.00 53 1014.8
20260510233200 75 254 0.0 1.7 0.00 0.00 0.00 54 1014.8
20260510232800 75 254 0.9 1.7 0.00 0.00 0.00 58 1014.7
20260510232400 76 254 0.9 1.7 0.00 0.00 0.00 54 1014.7
20260510232000 76 255 0.9 0.9 0.00 0.00 0.00 52 1014.7
20260510231559 76 255 0.0 1.7 0.00 0.00 0.00 54 1014.7
20260510231200 77 255 0.0 1.7 0.00 0.00 0.00 53 1014.5
20260510230359 78 267 0.0 1.7 0.00 0.00 0.00 50 1014.5
20260510230004 78 265 0.0 2.6 0.00 0.00 0.00 45 1014.5
20260510225600 78 265 0.0 2.6 0.00 0.00 0.00 45 1014.5
20260510225201 78 271 0.9 2.6 0.00 0.00 0.00 46 1014.4
20260510224800 79 183 0.0 3.5 0.00 0.00 0.00 46 1014.4
20260510224400 80 134 1.7 3.5 0.00 0.00 0.00 43 1014.4
20260510224002 80 274 0.9 3.5 0.00 0.00 0.00 42 1014.4
20260510223600 80 223 1.7 3.5 0.00 0.00 0.00 44 1014.4
20260510223200 80 278 0.9 6.1 0.00 0.00 0.00 43 1014.5
20260510222801 80 279 3.5 6.1 0.00 0.00 0.00 44 1014.3
20260510222401 80 241 1.7 4.3 0.00 0.00 0.00 52 1014.3
20260510222002 80 279 2.6 4.3 0.00 0.00 0.00 44 1014.3
20260510221601 80 177 1.7 4.3 0.00 0.00 0.00 44 1014.2
20260510221200 80 281 0.9 2.6 0.00 0.00 0.00 49 1014.3
20260510220800 81 281 0.9 2.6 0.00 0.00 0.00 48 1014.2
20260510220000 79 258 0.9 2.6 0.00 0.00 0.00 49 1014.3
20260510215559 80 273 0.0 2.6 0.00 0.00 0.00 50 1014.2
20260510214759 78 268 1.7 2.6 0.00 0.00 0.00 51 1014.3
20260510214359 79 264 0.9 3.5 0.00 0.00 0.00 48 1014.4
20260510214000 80 227 1.7 5.2 0.00 0.00 0.00 48 1014.3
20260510213159 81 226 1.7 5.2 0.00 0.00 0.00 45 1014.3
20260510212759 81 277 2.6 7.8 0.00 0.00 0.00 44 1014.3
20260510212400 82 304 1.7 7.8 0.00 0.00 0.00 44 1014.3
20260510212000 82 275 6.1 6.1 0.00 0.00 0.00 45 1014.3
20260510210800 79 206 0.9 4.3 0.00 0.00 0.00 49 1014.3
20260510210359 79 283 0.0 4.3 0.00 0.00 0.00 51 1014.3
20260510205559 80 284 1.7 7.0 0.00 0.00 0.00 53 1014.2
20260510205159 82 258 0.9 7.0 0.00 0.00 0.00 48 1014.3
20260510204759 83 322 1.7 2.6 0.00 0.00 0.00 46 1014.3
20260510204359 82 271 0.0 3.5 0.00 0.00 0.00 48 1014.3
20260510203959 80 199 0.9 3.5 0.00 0.00 0.00 51 1014.3
20260510203600 81 302 2.6 4.3 0.00 0.00 0.00 52 1014.4
20260510203159 82 254 1.7 6.1 0.00 0.00 0.00 49 1014.3
20260510202800 83 241 2.6 6.1 0.00 0.00 0.00 45 1014.3
20260510202359 83 277 1.7 6.1 0.00 0.00 0.00 44 1014.4
20260510202002 83 275 0.9 3.5 0.00 0.00 0.00 48 1014.4
20260510201200 83 134 2.6 4.3 0.00 0.00 0.00 44 1014.3
20260510200759 82 138 1.7 4.3 0.00 0.00 0.00 45 1014.4
20260510200359 82 168 1.7 3.5 0.00 0.00 0.00 47 1014.3
20260510200005 80 175 1.7 3.5 0.00 0.00 0.00 53 1014.4
20260510195559 80 175 0.0 3.5 0.00 0.00 0.00 54 1014.5
20260510195200 81 175 1.7 3.5 0.00 0.00 0.00 52 1014.4
20260510194759 81 180 1.7 3.5 0.00 0.00 0.00 48 1014.5
20260510193959 79 220 0.9 1.7 0.00 0.00 0.00 56 1014.5
20260510193600 79 220 1.7 2.6 0.00 0.00 0.00 57 1014.7
20260510192759 81 288 0.9 6.1 0.00 0.00 0.00 52 1014.8
20260510192401 82 289 0.9 6.1 0.00 0.00 0.00 46 1014.7
20260510192000 83 336 3.5 7.0 0.00 0.00 0.00 50 1014.9
20260510191559 82 120 2.6 7.8 0.00 0.00 0.00 47 1014.9
20260510191200 83 292 4.3 7.8 0.00 0.00 0.00 49 1014.9
20260510190759 83 282 3.5 7.0 0.00 0.00 0.00 48 1015.1
20260510190359 82 342 3.5 7.0 0.00 0.00 0.00 49 1015.1
20260510190003 81 299 2.6 3.5 0.00 0.00 0.00 55 1015.1
20260510185559 79 300 1.7 1.7 0.00 0.00 0.00 55 1015.1
20260510185159 79 300 0.0 1.7 0.00 0.00 0.00 59 1015.2
20260510184759 80 301 0.0 2.6 0.00 0.00 0.00 50 1015.2
20260510184401 81 301 0.9 6.1 0.00 0.00 0.00 49 1015.2
20260510184000 82 84 0.9 7.0 0.00 0.00 0.00 49 1015.1
20260510183600 82 184 0.0 7.0 0.00 0.00 0.00 50 1015.0
20260510183201 82 203 1.7 7.0 0.00 0.00 0.00 55 1015.1
20260510182759 81 140 4.3 4.3 0.00 0.00 0.00 53 1015.2
20260510182359 80 209 0.9 4.3 0.00 0.00 0.00 53 1015.2
20260510182000 80 271 0.9 3.5 0.00 0.00 0.00 50 1015.5
20260510181600 81 272 1.7 3.5 0.00 0.00 0.00 53 1015.4
20260510181159 81 300 1.7 3.5 0.00 0.00 0.00 49 1015.4
20260510180800 81 263 1.7 7.0 0.00 0.00 0.00 52 1015.3
20260510180359 82 273 1.7 7.0 0.00 0.00 0.00 50 1015.3
20260510175959 82 138 3.5 7.0 0.00 0.00 0.00 51 1015.4
20260510175158 82 198 0.9 6.1 0.00 0.00 0.00 55 1015.3
20260510174758 82 210 0.9 8.7 0.00 0.00 0.00 55 1015.3
20260510174000 82 181 4.3 8.7 0.00 0.00 0.00 49 1015.2
20260510173559 82 333 0.9 6.1 0.00 0.00 0.00 49 1015.3
20260510173159 82 275 3.5 6.1 0.00 0.00 0.00 57 1015.3
20260510172800 81 286 1.7 6.1 0.00 0.00 0.00 49 1015.3
20260510171558 81 136 3.5 7.8 0.00 0.00 0.00 49 1015.5
20260510171158 81 82 4.3 8.7 0.00 0.00 0.00 51 1015.5
20260510170759 81 123 3.5 8.7 0.00 0.00 0.00 51 1015.5
20260510170358 81 152 4.3 7.0 0.00 0.00 0.00 54 1015.5
20260510170003 81 159 0.9 5.2 0.00 0.00 0.00 52 1015.5
20260510164800 80 304 0.0 0.0 0.00 0.00 0.00 52 1015.6
20260510164359 80 296 0.0 0.0 0.00 0.00 0.00 54 1015.6
20260510163600 80 10 0.0 0.0 0.00 0.00 0.00 52 1015.7
20260510163159 80 42 0.0 0.0 0.00 0.00 0.00 53 1015.7
20260510162759 80 22 0.0 0.0 0.00 0.00 0.00 59 1015.8
20260510162400 79 344 0.0 0.0 0.00 0.00 0.00 55 1015.8
20260510161959 79 180 0.0 0.0 0.00 0.00 0.00 55 1015.9
20260510161559 79 244 0.0 0.0 0.00 0.00 0.00 55 1015.9
20260510161200 79 307 0.0 0.0 0.00 0.00 0.00 53 1015.9
20260510160359 79 288 0.0 0.0 0.00 0.00 0.00 56 1016.0
20260510160003 78 284 0.0 0.0 0.00 0.00 0.00 58 1016.0
20260510155159 78 304 0.0 0.0 0.00 0.00 0.00 56 1016.1
20260510154759 78 313 0.0 0.0 0.00 0.00 0.00 56 1016.2
20260510154359 78 329 0.0 0.0 0.00 0.00 0.00 54 1016.2
20260510153959 79 355 0.0 0.0 0.00 0.00 0.00 57 1016.2
20260510153600 78 355 0.0 0.0 0.00 0.00 0.00 57 1016.1
20260510153159 78 70 0.0 0.0 0.00 0.00 0.00 61 1016.1
20260510152359 78 5 0.0 0.0 0.00 0.00 0.00 62 1016.0
20260510151559 77 288 0.0 0.0 0.00 0.00 0.00 65 1016.2
20260510151200 77 284 0.0 0.0 0.00 0.00 0.00 65 1016.3
20260510150359 77 299 0.0 0.0 0.00 0.00 0.00 67 1016.1
20260510150002 77 128 0.0 0.0 0.00 0.00 0.00 67 1016.1
20260510145559 76 80 0.0 0.0 0.00 0.00 0.00 68 1016.1
20260510145159 76 350 0.0 0.0 0.00 0.00 0.00 68 1016.0
20260510144759 76 98 0.0 0.0 0.00 0.00 0.00 69 1016.1
20260510144000 75 59 0.0 0.0 0.00 0.00 0.00 69 1015.9
20260510143600 75 223 0.0 0.0 0.00 0.00 0.00 71 1015.9
20260510143159 74 44 0.0 0.0 0.00 0.00 0.00 71 1016.0
20260510142759 74 326 0.0 0.0 0.00 0.00 0.00 70 1015.9
20260510142400 74 302 0.0 0.0 0.00 0.00 0.00 73 1016.0
20260510142000 74 295 0.0 0.0 0.00 0.00 0.00 72 1015.9
20260510141559 74 228 0.0 0.0 0.00 0.00 0.00 74 1016.0
20260510140800 73 282 0.0 0.0 0.00 0.00 0.00 77 1016.0
20260510140003 73 285 0.0 0.0 0.00 0.00 0.00 78 1016.0
20260510135159 72 360 0.0 0.0 0.00 0.00 0.00 80 1015.8
20260510134800 72 323 0.0 0.0 0.00 0.00 0.00 79 1015.8
20260510134400 71 302 0.0 0.0 0.00 0.00 0.00 79 1015.7
20260510134000 71 287 0.0 0.0 0.00 0.00 0.00 83 1015.7
20260510133600 71 315 0.0 0.0 0.00 0.00 0.00 81 1015.7
20260510132759 70 289 0.0 0.0 0.00 0.00 0.00 81 1015.7
20260510132400 70 315 0.0 0.0 0.00 0.00 0.00 84 1015.7
20260510131159 69 286 0.0 0.0 0.00 0.00 0.00 85 1015.7
20260510130759 69 234 0.0 0.0 0.00 0.00 0.00 85 1015.7
20260510130400 68 292 0.0 0.0 0.00 0.00 0.00 85 1015.7
20260510130002 68 348 0.0 0.0 0.00 0.00 0.00 87 1015.6
20260510125200 67 306 0.0 0.0 0.00 0.00 0.00 88 1015.7
20260510124758 67 273 0.0 0.0 0.00 0.00 0.00 88 1015.7
20260510124359 66 184 0.0 0.0 0.00 0.00 0.00 90 1015.6
20260510123959 66 178 0.0 0.0 0.00 0.00 0.00 91 1015.6
20260510123559 65 273 0.0 0.0 0.00 0.00 0.00 92 1015.6
20260510123158 65 274 0.0 0.0 0.00 0.00 0.00 93 1015.7
20260510122800 64 257 0.0 0.0 0.00 0.00 0.00 93 1015.6
20260510122400 64 304 0.0 0.0 0.00 0.00 0.00 94 1015.7
20260510121959 64 283 0.0 0.0 0.00 0.00 0.00 95 1015.6
20260510121600 63 283 0.0 0.0 0.00 0.00 0.00 95 1015.6
20260510120800 63 187 0.0 0.0 0.00 0.00 0.00 95 1015.6
20260510120359 62 178 0.0 0.0 0.00 0.00 0.00 95 1015.4
20260510115958 62 157 0.0 0.0 0.00 0.00 0.00 96 1015.2
20260510115158 62 157 0.0 0.0 0.00 0.00 0.00 95 1015.2
20260510114758 62 157 0.0 0.0 0.00 0.00 0.00 96 1015.1
20260510114359 61 157 0.0 0.0 0.00 0.00 0.00 96 1015.1
20260510113959 61 151 0.0 0.0 0.00 0.00 0.00 96 1014.9
20260510113559 61 151 0.0 0.0 0.00 0.00 0.00 96 1014.9
20260510113158 61 151 0.0 0.0 0.00 0.00 0.00 96 1014.9
20260510112800 61 151 0.0 0.0 0.00 0.00 0.00 96 1014.8
20260510112358 61 151 0.0 0.0 0.00 0.00 0.00 96 1014.6
20260510111959 60 151 0.0 0.0 0.00 0.00 0.00 96 1014.7
20260510111558 60 151 0.0 0.0 0.00 0.00 0.00 96 1014.7
20260510111157 60 151 0.0 0.0 0.00 0.00 0.00 96 1014.7
20260510110759 60 151 0.0 0.0 0.00 0.00 0.00 96 1014.8
20260510110359 60 151 0.0 0.0 0.00 0.00 0.00 96 1014.7
20260510105959 60 151 0.0 0.0 0.00 0.00 0.00 96 1014.7
20260510105558 60 151 0.0 0.0 0.00 0.00 0.00 96 1014.6
20260510105158 60 151 0.0 0.0 0.00 0.00 0.00 96 1014.5
20260510104758 60 151 0.0 0.0 0.00 0.00 0.00 96 1014.4
20260510104358 60 151 0.0 0.0 0.00 0.00 0.00 96 1014.4
20260510103958 60 246 0.0 0.0 0.00 0.00 0.00 96 1014.3
20260510103158 60 246 0.0 0.0 0.00 0.00 0.00 96 1014.2
20260510102758 60 246 0.0 0.0 0.00 0.00 0.00 96 1014.1
20260510102357 60 246 0.0 0.0 0.00 0.00 0.00 96 1014.2
20260510101958 60 246 0.0 0.0 0.00 0.00 0.00 96 1014.0
20260510101558 60 246 0.0 0.0 0.00 0.00 0.00 96 1014.0
20260510100757 60 246 0.0 0.0 0.00 0.00 0.00 96 1013.7
20260510100358 60 246 0.0 0.0 0.00 0.00 0.00 96 1013.7
20260510095959 60 246 0.0 0.0 0.00 0.00 0.00 96 1013.7
20260510095558 59 246 0.0 0.0 0.00 0.00 0.00 96 1013.5
20260510095158 59 246 0.0 0.0 0.00 0.00 0.00 96 1013.6
20260510094358 60 246 0.0 0.0 0.00 0.00 0.00 96 1013.5
20260510093958 60 246 0.0 0.0 0.00 0.00 0.00 96 1013.5
20260510093557 59 246 0.0 0.0 0.00 0.00 0.00 96 1013.5
20260510093157 59 246 0.0 0.0 0.00 0.00 0.00 96 1013.3
20260510092758 59 246 0.0 0.0 0.00 0.00 0.00 96 1013.3
20260510091959 60 246 0.0 0.0 0.00 0.00 0.00 95 1013.3
20260510091557 60 246 0.0 0.0 0.00 0.00 0.00 95 1013.3
20260510091158 60 246 0.0 0.0 0.00 0.00 0.00 95 1013.2
20260510090757 60 246 0.0 0.0 0.00 0.00 0.00 95 1013.2
20260510090358 60 246 0.0 0.0 0.00 0.00 0.00 95 1013.1
20260510090001 60 246 0.0 0.0 0.00 0.00 0.00 95 1013.1
20260510085559 60 246 0.0 0.0 0.00 0.00 0.00 95 1013.0
20260510085200 60 246 0.0 0.0 0.00 0.00 0.00 96 1013.0
20260510084759 60 246 0.0 0.0 0.00 0.00 0.00 95 1013.0
20260510084359 60 246 0.0 0.0 0.00 0.00 0.00 95 1013.0
20260510084000 60 246 0.0 0.0 0.00 0.00 0.00 96 1012.9
20260510083559 60 246 0.0 0.0 0.00 0.00 0.00 96 1013.0
20260510083200 60 246 0.0 0.0 0.00 0.00 0.00 96 1012.9
20260510082759 60 246 0.0 0.0 0.00 0.00 0.00 96 1012.8
20260510082359 60 246 0.0 0.0 0.00 0.00 0.00 95 1012.8
20260510081959 60 246 0.0 0.0 0.00 0.00 0.00 96 1012.8
20260510081559 60 246 0.0 0.0 0.00 0.00 0.00 95 1012.9
20260510081159 60 246 0.0 0.0 0.00 0.00 0.00 95 1012.8
20260510080759 60 246 0.0 0.0 0.00 0.00 0.00 95 1012.8
20260510080400 60 246 0.0 0.0 0.00 0.00 0.00 95 1012.8
20260510080000 60 246 0.0 0.0 0.00 0.00 0.00 96 1012.8
20260510075559 60 246 0.0 0.0 0.00 0.00 0.00 96 1012.7
20260510074758 60 246 0.0 0.0 0.00 0.00 0.00 95 1012.6
20260510074358 60 246 0.0 0.0 0.00 0.00 0.00 95 1012.7
20260510073558 60 246 0.0 0.0 0.00 0.00 0.00 95 1012.6
20260510072757 60 246 0.0 0.0 0.00 0.00 0.00 95 1012.6
20260510072358 60 246 0.0 0.0 0.00 0.00 0.00 95 1012.5
20260510071958 60 246 0.0 0.0 0.00 0.00 0.00 95 1012.6
20260510071157 60 246 0.0 0.0 0.00 0.00 0.00 95 1012.6
20260510070758 60 246 0.0 0.0 0.00 0.00 0.00 95 1012.6
20260510070357 60 246 0.0 0.0 0.00 0.00 0.00 95 1012.7
20260510065959 60 246 0.0 0.0 0.00 0.00 0.00 95 1012.7
20260510065158 60 246 0.0 0.0 0.00 0.00 0.00 95 1012.7
20260510063557 61 246 0.0 0.0 0.00 0.00 0.00 95 1012.6
20260510063159 61 246 0.0 0.0 0.00 0.00 0.00 95 1012.7
20260510062800 61 246 0.0 0.0 0.00 0.00 0.00 95 1012.6
20260510062357 61 246 0.0 0.0 0.00 0.00 0.00 95 1012.6
20260510061959 61 246 0.0 0.0 0.00 0.00 0.00 95 1012.6
20260510061559 61 246 0.0 0.0 0.00 0.00 0.00 95 1012.5
20260510061159 61 246 0.0 0.0 0.00 0.00 0.00 95 1012.4
20260510060758 61 246 0.0 0.0 0.00 0.00 0.00 95 1012.5
20260510060359 61 246 0.0 0.0 0.00 0.00 0.00 95 1012.6
20260510055958 61 246 0.0 0.0 0.00 0.00 0.00 95 1012.7
20260510055557 61 246 0.0 0.0 0.00 0.00 0.00 95 1012.7
20260510055200 61 246 0.0 0.0 0.00 0.00 0.00 95 1012.8
20260510054756 61 246 0.0 0.0 0.00 0.00 0.00 95 1012.7
20260510054357 61 246 0.0 0.0 0.00 0.00 0.00 95 1012.8
20260510053958 61 246 0.0 0.0 0.00 0.00 0.00 95 1012.8
20260510053557 61 246 0.0 0.0 0.00 0.00 0.00 95 1012.8
20260510053157 61 246 0.0 0.0 0.00 0.00 0.00 95 1013.0
20260510052757 61 246 0.0 0.0 0.00 0.00 0.00 95 1013.0
20260510051958 61 246 0.0 0.0 0.00 0.00 0.00 95 1013.2
20260510050759 61 246 0.0 0.0 0.00 0.00 0.00 95 1013.3
20260510050358 61 246 0.0 0.0 0.00 0.00 0.00 95 1013.2
20260510050004 61 246 0.0 0.0 0.00 0.00 0.00 95 1013.2
20260510045602 61 246 0.0 0.0 0.00 0.00 0.00 94 1013.3
20260510045200 61 246 0.0 0.0 0.00 0.00 0.00 94 1013.2
20260510044401 62 246 0.0 0.0 0.00 0.00 0.00 95 1013.3
20260510044001 62 246 0.0 0.0 0.00 0.00 0.00 94 1013.3
20260510043601 62 246 0.0 0.0 0.00 0.00 0.00 95 1013.3
20260510042802 62 246 0.0 0.0 0.00 0.00 0.00 94 1013.2
20260510042401 62 246 0.0 0.0 0.00 0.00 0.00 94 1013.2
20260510042001 62 246 0.0 0.0 0.00 0.00 0.00 94 1013.2
20260510041601 62 246 0.0 0.0 0.00 0.00 0.00 94 1013.2
20260510041200 62 246 0.0 0.0 0.00 0.00 0.00 94 1013.1
20260510040401 62 246 0.0 0.0 0.00 0.00 0.00 94 1013.0
20260510040004 62 246 0.0 0.0 0.00 0.00 0.00 94 1012.9
20260510035601 62 246 0.0 0.0 0.00 0.00 0.00 94 1012.9
20260510034801 62 246 0.0 0.0 0.00 0.00 0.00 94 1012.9
20260510034400 62 246 0.0 0.0 0.00 0.00 0.00 94 1012.9
20260510034002 62 246 0.0 0.0 0.00 0.00 0.00 94 1012.8
20260510033559 62 246 0.0 0.0 0.00 0.00 0.00 94 1012.9
20260510033201 62 246 0.0 0.0 0.00 0.00 0.00 94 1012.8
20260510032800 62 246 0.0 0.0 0.00 0.00 0.00 94 1012.8
20260510032401 62 246 0.0 0.0 0.00 0.00 0.00 94 1012.7
20260510032000 62 246 0.0 0.0 0.00 0.00 0.00 94 1012.7
20260510031559 62 246 0.0 0.0 0.00 0.00 0.00 94 1012.7
20260510030400 62 246 0.0 0.0 0.00 0.00 0.00 94 1012.7
20260510030001 62 245 0.0 0.0 0.00 0.00 0.00 94 1012.6
20260510025600 63 245 0.0 0.0 0.00 0.00 0.00 94 1012.6
20260510025200 63 245 0.0 0.0 0.00 0.00 0.00 94 1012.6
20260510024759 63 245 0.0 0.0 0.00 0.00 0.00 93 1012.5
20260510024001 63 245 0.0 0.0 0.00 0.00 0.00 93 1012.5
20260510023559 63 245 0.0 0.0 0.00 0.00 0.00 93 1012.4
20260510023200 63 245 0.0 0.0 0.00 0.00 0.00 93 1012.5
20260510022400 63 245 0.0 0.0 0.00 0.00 0.00 93 1012.5
20260510022000 63 245 0.0 0.0 0.00 0.00 0.00 93 1012.5
20260510021600 63 245 0.0 0.0 0.00 0.00 0.00 93 1012.4
20260510020800 63 245 0.0 0.0 0.00 0.00 0.00 93 1012.4
20260510020400 63 245 0.0 0.0 0.00 0.00 0.00 93 1012.5
20260510020001 63 245 0.0 0.0 0.00 0.00 0.00 92 1012.5
20260510015600 64 245 0.0 0.0 0.00 0.00 0.00 92 1012.5
20260510014800 64 245 0.0 0.0 0.00 0.00 0.00 92 1012.4
20260510014400 64 245 0.0 0.0 0.00 0.00 0.00 92 1012.3
20260510014000 64 245 0.0 0.0 0.00 0.00 0.00 92 1012.1
20260510013600 64 245 0.0 0.0 0.00 0.00 0.00 92 1012.1
20260510013200 64 245 0.0 0.0 0.00 0.00 0.00 91 1012.1
20260510012759 64 245 0.0 0.0 0.00 0.00 0.00 91 1012.0
20260510012400 64 245 0.0 0.0 0.00 0.00 0.00 91 1012.1
20260510011559 65 245 0.0 0.0 0.00 0.00 0.00 91 1011.9
20260510011200 65 245 0.0 0.0 0.00 0.00 0.00 91 1012.0
20260510010800 65 245 0.0 0.0 0.00 0.00 0.00 91 1012.1
20260510010400 65 245 0.0 0.0 0.00 0.00 0.00 91 1012.0
20260510010000 65 245 0.0 0.0 0.00 0.00 0.00 90 1012.0
20260510005200 65 245 0.0 0.0 0.00 0.00 0.00 90 1011.9
20260510004402 66 245 0.0 0.0 0.00 0.00 0.00 89 1011.8
20260510004001 66 245 0.0 0.0 0.00 0.00 0.00 89 1011.8
20260510003600 66 245 0.0 0.0 0.00 0.00 0.00 88 1011.8
20260510002400 67 245 0.0 0.0 0.00 0.00 0.00 87 1011.8
20260510002001 67 245 0.0 0.0 0.00 0.00 0.00 86 1011.9
20260510001600 67 245 0.0 0.0 0.00 0.00 0.00 86 1011.8
20260510001200 67 245 0.0 0.0 0.00 0.00 0.00 86 1011.9
20260510000759 67 245 0.0 0.0 0.00 0.00 0.00 85 1011.7
20260510000403 68 245 0.0 0.0 0.00 0.00 0.00 85 1011.7
20260510000002 68 245 0.0 0.0 0.00 0.00 0.00 84 1011.6
20260509235200 69 245 0.0 0.0 0.00 0.00 0.00 83 1011.5